Weather History for Oceanside, CA

Change the Weather History Date:

Monday, December 30, 2013

  Actual Average Record
Temperature  
Mean Temperature 54 °F 52 °F  
Max Temperature 75 °F 65 °F 75 °F (2013)
Min Temperature 32 °F 40 °F 30 °F (1999)
Degree Days  
Heating Degree Days 11 13  
Month to date heating degree days 335 374  
Since 1 July heating degree days 634 724  
Cooling Degree Days 0 0  
Month to date cooling degree days 0 0  
Year to date cooling degree days 535 419  
Growing Degree Days 3 (Base 50)    
Moisture  
Dew Point 27 °F    
Average Humidity 37    
Maximum Humidity 64    
Minimum Humidity 9    
Precipitation  
Precipitation 0.00 in 0.13 in 0.08 in (2001)
Month to date precipitation 0.36 2.02  
Year to date precipitation 3.92 13.53  
Since 1 July precipitation 1.60 4.26  
Snow  
Snow 0.00 in - - ()
Month to date snowfall 0.0  
Year to date snowfall 0.0  
Since 1 July snowfall 0.0  
Snow Depth 0.00 in    
Sea Level Pressure  
Sea Level Pressure 30.19 in    
Wind  
Wind Speed 3 mph (NW)    
Max Wind Speed 13 mph    
Max Gust Speed 16 mph    
Visibility 10 miles    
Events      
T = Trace of Precipitation, MM = Missing Value Source: NWS Daily Summary

Daily Weather History Graph

Daily Weather History Graph

Search for Another Location

Airport:

Trip Planner

Search our weather history database for the weather conditions in past years. The results will help you decide how hot, cold, wet, or windy it might be!

Date:

Astronomy

Dec. 30, 2013 Rise Set
Actual Time 6:52 AM PST 4:51 PM PST
Civil Twilight 6:25 AM PST 5:19 PM PST
Nautical Twilight 5:54 AM PST 5:50 PM PST
Astronomical Twilight 5:24 AM PST 6:20 PM PST
Moon 4:49 AM PST (12/30) 3:27 PM PST (12/30)
Length of Visible Light 10h 54m
Length of Day
9h 59m
Waning Crescent, 4% of the Moon is Illuminated
Dec 30
Waning Crescent
Jan 1
New
Jan 7
First Quarter
Jan 15
Full
Jan 23
Last Quarter

Hourly Weather History & Observations

Time (PST) Temp. Windchill Dew Point Humidity Pressure Visibility Wind Dir Wind Speed Gust Speed Precip Events Conditions
12:52 AM 41.0 °F - 26.1 °F 55% 30.14 in 10.0 mi Calm Calm - N/A   Clear
1:52 AM 39.9 °F 37.8 °F 21.9 °F 49% 30.16 in 10.0 mi NNE 3.5 mph - N/A   Clear
2:52 AM 37.0 °F - 21.9 °F 54% 30.17 in 10.0 mi Calm Calm - N/A   Clear
3:52 AM 39.0 °F - 19.9 °F 46% 30.18 in 10.0 mi Calm Calm - N/A   Clear
4:52 AM 34.0 °F 31.0 °F 21.0 °F 59% 30.19 in 10.0 mi East 3.5 mph - N/A   Clear
5:52 AM 35.1 °F - 21.0 °F 57% 30.20 in 10.0 mi Calm Calm - N/A   Clear
6:52 AM 33.1 °F - 21.0 °F 61% 30.22 in 10.0 mi Calm Calm - N/A   Clear
7:52 AM 39.0 °F - 25.0 °F 57% 30.24 in 10.0 mi Calm Calm - N/A   Clear
8:52 AM 51.1 °F - 21.9 °F 32% 30.25 in 10.0 mi NE 3.5 mph - N/A   Clear
9:52 AM 61.0 °F - 17.1 °F 18% 30.25 in 10.0 mi NE 5.8 mph - N/A   Clear
10:52 AM 69.1 °F - 12.9 °F 11% 30.22 in 10.0 mi ENE 3.5 mph - N/A   Clear
11:52 AM 73.9 °F - 15.1 °F 11% 30.19 in 10.0 mi SW 4.6 mph - N/A   Clear
12:52 PM 73.9 °F - 12.9 °F 10% 30.16 in 10.0 mi West 6.9 mph - N/A   Clear
1:52 PM 73.0 °F - 17.1 °F 12% 30.15 in 10.0 mi West 6.9 mph - N/A   Clear
2:52 PM 71.1 °F - 19.0 °F 14% 30.14 in 10.0 mi West 5.8 mph - N/A   Clear
3:52 PM 66.9 °F - 30.0 °F 25% 30.15 in 10.0 mi West 4.6 mph - N/A   Clear
4:52 PM 61.0 °F - 45.0 °F 56% 30.16 in 10.0 mi SSW 3.5 mph - N/A   Clear
5:52 PM 55.9 °F - 48.9 °F 77% 30.17 in 10.0 mi Calm Calm - N/A   Clear
6:52 PM 46.9 °F - 43.0 °F 86% 30.19 in 10.0 mi Calm Calm - N/A   Clear
7:52 PM 44.1 °F - 41.0 °F 89% 30.21 in 10.0 mi Calm Calm - N/A   Clear
8:52 PM 43.0 °F - 37.9 °F 82% 30.21 in 10.0 mi Calm Calm - N/A   Clear
9:52 PM 37.9 °F - 34.0 °F 86% 30.21 in 10.0 mi Calm Calm - N/A   Clear
10:52 PM 37.9 °F - 33.1 °F 83% 30.22 in 10.0 mi Calm Calm - N/A   Clear
11:52 PM 37.9 °F - 30.0 °F 73% 30.20 in 10.0 mi Calm Calm - N/A   Clear